Flag for Germany Weather past 2 weeks in Monheim am Rhein, North Rhine-Westphalia, Germany

Now
57 °F

Sunny.


Feels Like: 54 °F
Forecast: 37 / 60 °F
Wind: 14 mph from Northeast

Location: Duesseldorf

Current Time: Apr 18, 2015 at 3:31:58 PM

Latest Report: Apr 18, 2015 at 2:50 PM


Visibility: 10 mi

Pressure: 30.33 "Hg

Humidity: 33%

Dew point: 28 °F

Location of Monheim am RheinLocation

Historic Weather in Monheim am Rhein — Graph

°F

Monheim am Rhein temperature yesterday

Maximum temperature yesterday: 55 °F (at 4:20 PM)
Minimum temperature yesterday: 41 °F (at 6:20 AM)
Average temperature yesterday: 48 °F

Past Weeks' High & Low Weather Summary

 TemperatureHumidityPressure
High75 °F (Apr 15, 3:20 PM)100% (Apr 7, 6:50 AM)30.66 "Hg (Apr 7, 6:50 AM)
Low28 °F (Apr 7, 6:50 AM)25% (Apr 12, 4:50 PM)29.92 "Hg (Apr 15, 6:50 PM)
Average50 °F65%30.25 "Hg
* Reported Apr 3 2:20 PM — Apr 18 2:20 PM, Monheim am Rhein, Weather by CustomWeather, © 2015

Note: Actual official high and low records may vary slightly from our data, if they occured in-between our weather recording intervals... More about our weather records

Advertising

Monheim am Rhein weather history for previous 24 hours

 ConditionsComfort  
Time TempWeatherWind HumidityBarometerVisibility
2:20 PM
Sat, Apr 18
57 °FSunny.12 mph36%30.33 "Hg10 mi
1:50 PM55 °FSunny.13 mph38%30.33 "Hg10 mi
1:20 PM54 °FSunny.16 mph38%30.33 "Hg10 mi
12:50 PM54 °FSunny.12 mph41%30.33 "Hg10 mi
12:20 PM54 °FPassing clouds.15 mph44%30.33 "HgN/A
11:50 AM52 °FPassing clouds.13 mph44%30.33 "HgN/A
11:20 AM52 °FPassing clouds.10 mph47%30.36 "HgN/A
10:50 AM52 °FPassing clouds.13 mph54%30.36 "HgN/A
10:20 AM50 °FPassing clouds.13 mph58%30.33 "HgN/A
9:50 AM48 °FPassing clouds.9 mph62%30.33 "HgN/A
9:20 AM46 °FSunny.9 mph71%30.33 "Hg10 mi
8:50 AM45 °FSunny.8 mph76%30.33 "Hg10 mi
8:20 AM43 °FSunny.6 mph76%30.33 "Hg10 mi
7:50 AM39 °FSunny.3 mph87%30.30 "Hg10 mi
7:20 AM37 °FClear.6 mph87%30.30 "Hg10 mi
6:50 AM36 °FClear.5 mph87%30.30 "Hg10 mi
6:20 AM36 °FClear.3 mph87%30.27 "Hg10 mi
5:50 AM36 °FClear.5 mph87%30.27 "Hg10 mi
5:20 AM36 °FClear.6 mph87%30.27 "Hg10 mi
4:50 AM36 °FClear.5 mph87%30.27 "Hg10 mi
4:20 AM37 °FClear.5 mph81%30.27 "Hg10 mi
3:50 AM37 °FClear.7 mph81%30.27 "Hg10 mi
3:20 AM37 °FClear.7 mph81%30.27 "Hg10 mi
2:50 AM39 °FClear.7 mph75%30.27 "Hg10 mi
2:20 AM39 °FClear.7 mph75%30.24 "Hg10 mi
1:50 AM41 °FClear.7 mph70%30.24 "Hg10 mi
1:20 AM41 °FClear.7 mph70%30.24 "Hg10 mi
12:50 AM43 °FClear.7 mph71%30.24 "Hg10 mi
12:20 AM43 °FClear.8 mph71%30.21 "Hg10 mi
11:50 PM
Fri, Apr 17
45 °FClear.8 mph66%30.21 "Hg10 mi
11:20 PM45 °FClear.8 mph66%30.18 "Hg10 mi
10:50 PM46 °FClear.8 mph57%30.18 "Hg10 mi
10:20 PM46 °FClear.8 mph57%30.18 "Hg10 mi
9:50 PM48 °FClear.9 mph54%30.15 "Hg10 mi
9:20 PM48 °FSunny.8 mph54%30.15 "Hg10 mi
8:50 PM50 °FSunny.9 mph47%30.12 "Hg10 mi
8:20 PM50 °FSunny.10 mph47%30.12 "Hg10 mi
7:50 PM52 °FSunny.10 mph44%30.12 "Hg10 mi
7:20 PM54 °FSunny.13 mph41%30.09 "Hg10 mi
6:50 PM54 °FSunny.9 mph44%30.09 "Hg10 mi
6:20 PM54 °FSunny.9 mph47%30.09 "Hg10 mi
5:50 PM55 °FSunny.10 mph38%30.09 "Hg10 mi
5:20 PM55 °FSunny.14 mph44%30.07 "Hg10 mi
4:50 PM55 °FSunny.13 mph44%30.07 "Hg10 mi
4:20 PM55 °FScattered clouds.13 mph44%30.07 "HgN/A
3:50 PM54 °FScattered clouds.12 mph47%30.07 "HgN/A
3:20 PM54 °FScattered clouds.10 mph47%30.07 "HgN/A
Weather by CustomWeather, © 2015

See weather overviewHow to use our weather pages